E21CLD-1 Weather Reports


Display with metric or nautical units.
time (UTC)temp
F
wind
direction
speed
MPH
gust
MPH
rain 1hr
in
rain 24hr
in
rain mn
in
humidity
%
barometer
mb
20260509112515 90 0 0.0 0.0 0.00 0.00 0.00 44 1006.0
20260509110445 90 0 0.0 0.0 0.00 0.00 0.00 44 1006.0
20260509104413 90 0 0.0 0.0 0.00 0.00 0.00 45 1006.0
20260509102340 90 0 0.0 0.0 0.00 0.00 0.00 44 1006.0
20260509100311 90 0 0.0 0.0 0.00 0.00 0.00 45 1005.0
20260509094246 90 0 0.0 0.0 0.00 0.00 0.00 45 1005.0
20260509092218 90 0 0.0 0.0 0.00 0.00 0.00 47 1005.0
20260509090151 90 0 0.0 0.0 0.00 0.00 0.00 46 1006.0
20260509090043 90 0 0.0 0.0 0.00 0.00 0.00 46 1006.0
20260509084013 91 0 0.0 0.0 0.00 0.00 0.00 47 1006.0
20260509081944 91 0 0.0 0.0 0.00 0.00 0.00 45 1007.0
20260509075917 91 0 0.0 0.0 0.00 0.00 0.00 45 1007.0
20260509073849 90 0 0.0 0.0 0.00 0.00 0.00 46 1007.0
20260509071820 90 0 0.0 0.0 0.00 0.00 0.00 46 1007.0
20260509065753 90 0 0.0 0.0 0.00 0.00 0.00 46 1008.0
20260509063725 90 0 0.0 0.0 0.00 0.00 0.00 45 1008.0
20260509061658 91 0 0.0 0.0 0.00 0.00 0.00 46 1009.0
20260509055628 90 0 0.0 0.0 0.00 0.00 0.00 48 1009.0
20260509053600 90 0 0.0 0.0 0.00 0.00 0.00 47 1010.0
20260509051532 90 0 0.0 0.0 0.00 0.00 0.00 45 1010.0
20260509045504 91 0 0.0 0.0 0.00 0.00 0.00 44 1010.0
20260509043434 92 0 0.0 0.0 0.00 0.00 0.00 46 1010.0
20260509041401 95 0 0.0 0.0 0.00 0.00 0.00 51 1011.0
20260509035329 95 0 0.0 0.0 0.00 0.00 0.00 54 1011.0
20260509033259 95 0 0.0 0.0 0.00 0.00 0.00 54 1011.0
20260509031230 94 0 0.0 0.0 0.00 0.00 0.00 55 1011.0
20260509025201 94 0 0.0 0.0 0.00 0.00 0.00 56 1012.0
20260509023131 94 0 0.0 0.0 0.00 0.00 0.00 57 1012.0
20260509021059 94 0 0.0 0.0 0.00 0.00 0.00 58 1012.0
20260509015029 94 0 0.0 0.0 0.00 0.00 0.00 59 1012.0
20260509013002 94 0 0.0 0.0 0.00 0.00 0.00 61 1012.0
20260509010930 92 0 0.0 0.0 0.00 0.00 0.00 65 1012.0
20260509004856 87 0 0.0 0.0 0.00 0.00 0.00 70 1012.0